Location: Newark
(41.6478°N, 9.0078°E)
Time: 19:10:27
(UTC+00:00)

UWE-3 - Pass Details

Date: 27 January 2020
Orbit: 585 x 683 km, 97.6° (Epoch: 19 February)

Event Time Altitude Azimuth Distance (km) Brightness Sun altitude
Rises 05:49:24 0° 360° (N) 2,877 ? -9.9°
Reaches altitude 10° 05:51:48 10° 348° (NNW) 1,984 ? -9.5°
Maximum altitude 05:55:25 27° 291° (WNW) 1,209 ? -8.8°
Drops below altitude 10° 05:59:07 10° 233° (SW) 2,022 ? -8.2°
Sets 06:01:36 0° 222° (SW) 2,944 ? -7.7°
